Location: Antin
(43.3330°N, 0.2804°E)
Time: 06:41:44
(UTC+00:00)

SME Rocket - Pass Details

Date: 03 June 2022
Orbit: 551 x 2650 km, 99.9° (Epoch: 06 July)

Event Time Altitude Azimuth Distance (km) Brightness Sun altitude
Exits shadow 02:32:10 18° 254° (WSW) 1,722 4.9 -15.3°
Maximum altitude 02:33:18 19° 273° (W) 1,728 5.0 -15.2°
Drops below altitude 10° 02:37:11 10° 318° (NW) 2,615 6.4 -14.8°
Sets 02:40:51 0° 335° (NNW) 3,922 7.5 -14.3°
